#timestamp,LO_Frequency,Hit,StdDev 
1695520815.5,286046998.9,N
1695520835.4,286046998.4,N
1695520855.2,286046998.3,N
1695520875.0,286046998.1,Y
1695520875.9,286046998.1,P
1695520895.8,286047000.3,N
1695520915.6,286047000.5,N
1695520935.5,286047002.8,N
1695520955.3,286047000.2,N
1695520975.1,286046999.7,N
1695520995.9,286046999.9,N
1695521015.7,286047000.0,N
1695521035.5,286047000.2,N
1695521055.4,286047001.0,N
1695521075.2,286047000.2,N
1695521095.1,286047002.8,N
1695521096.0,286047002.8,N
1695521115.8,286047002.4,N
1695521135.7,286047002.8,N
1695521155.5,286047000.3,N
1695521175.3,286046999.8,N
1695521195.2,286047002.6,N
1695521215.0,286047002.4,N
1695521215.9,286047002.4,N
1695521235.8,286047000.0,N
1695521255.6,286047000.5,N
1695521275.4,286047000.4,N
1695521295.3,286047001.0,N
1695521315.1,286047000.2,N
1695521335.8,286047000.6,N
1695521355.7,286047000.3,N
1695521375.5,286047000.9,N
1695521395.4,286047000.5,N
1695521415.2,286047000.6,N
1695521435.0,286047000.0,N
1695521435.9,286047000.0,N
1695521455.8,286047000.0,N
1695521475.6,286047001.0,N
1695521495.5,286047000.6,N
1695521515.3,286046999.7,N
1695521535.1,286047002.1,N
1695521555.9,286047001.7,N
1695521575.7,286047004.4,Y
1695521595.5,286047002.5,P
1695521615.4,286047001.3,N
1695521635.2,286047003.7,P
1695521655.1,286047003.5,Y
1695521656.0,286047003.5,P
1695521675.8,286047000.3,N
1695521695.6,286047000.0,N
1695521715.5,286047002.7,N
1695521735.3,286047002.4,N
1695521755.1,286046999.9,N
1695521775.9,286047002.0,N
1695521795.7,286047002.0,N
1695521815.6,286047001.3,N
1695521835.4,286047001.4,N
1695521855.2,286047004.0,Y
1695521875.1,286047001.9,P
1695521876.0,286047001.9,P
1695521895.8,286047001.5,P
1695521915.7,286047002.5,Y
1695521935.5,286047001.0,P
1695521955.3,286047000.4,N
1695521975.2,286046999.8,N
1695521995.0,286047002.4,Y
1695521995.9,286047002.4,P
1695522015.7,286047000.1,N
1695522035.6,286047000.1,N
1695522055.4,286047000.0,N
1695522075.3,286047002.8,Y
1695522095.1,286047000.9,P
1695522096.0,286047000.9,P
1695522115.8,286046999.8,N
1695522135.7,286047000.2,N
1695522155.5,286047002.7,Y
1695522175.4,286047002.2,P
1695522195.2,286047000.8,N
1695522215.0,286047000.6,N
1695522215.9,286047000.6,N
1695522235.8,286047000.6,N
1695522255.6,286046999.7,N
1695522275.4,286047002.6,Y
1695522295.3,286047000.3,P
1695522315.1,286047000.3,N
1695522335.9,286047000.1,N
1695522355.7,286047000.8,Y
1695522375.5,286047000.7,P
1695522395.4,286047000.5,N
1695522415.2,286047000.2,N
1695522435.0,286047000.2,N
1695522436.0,286047000.2,N
1695522455.8,286047000.4,N
1695522475.6,286047000.5,N
1695522495.5,286047000.6,Y
1695522515.3,286047000.4,P
1695522535.1,286047001.0,P
1695522555.9,286047001.0,P
1695522575.7,286047000.7,N
1695522595.6,286047000.3,N
1695522615.4,286047000.7,N
1695522635.2,286047001.1,Y
1695522655.1,286046998.7,P
1695522656.0,286046998.7,N
1695522675.8,286046998.7,N
1695522695.6,286046998.5,N
1695522715.5,286046999.4,N
1695522735.3,286046998.6,N
1695522755.2,286046999.0,N
1695522775.9,286046998.1,N
1695522795.7,286046998.6,N
1695522815.6,286046998.2,N
1695522835.4,286046998.2,N
1695522855.2,286047001.1,N
1695522875.1,286047000.8,N
1695522876.0,286047000.8,N
1695522895.8,286047001.0,N
1695522915.7,286047000.0,N
1695522935.5,286046999.9,N
1695522955.3,286047002.7,N
1695522975.2,286046999.9,N
1695522995.0,286047000.2,N
1695522995.9,286047000.2,N
1695523015.8,286046999.8,N
1695523035.6,286047000.2,N
1695523055.4,286047002.5,N
1695523075.3,286047002.2,N
1695523095.1,286047002.7,N
1695523115.8,286046999.9,N
1695523135.7,286047000.0,N
1695523155.5,286047000.6,N
1695523175.4,286047000.0,N
1695523195.2,286047000.6,N
1695523215.0,286047000.9,N
1695523215.9,286047000.9,N
1695523235.8,286047000.9,N
1695523255.6,286047000.9,N
1695523275.4,286047000.7,N
1695523295.3,286047000.9,N
1695523315.1,286047000.5,N
1695523335.9,286046999.8,N
1695523355.7,286047002.3,N
1695523375.5,286046999.7,N
1695523395.4,286047000.2,N
1695523415.2,286047002.7,Y
1695523435.0,286047000.9,P
1695523436.0,286047000.9,P
1695523455.8,286047000.3,P
1695523475.6,286046999.9,N
1695523495.5,286046999.7,N
1695523515.3,286047002.2,Y
1695523535.0,286047002.7,P
1695523535.9,286047002.7,N
1695523555.7,286047002.6,N
1695523575.6,286047002.4,N
1695523595.4,286047002.2,N
1695523615.3,286047001.8,N
1695523635.1,286047001.3,N
1695523636.0,286047001.3,N
1695523655.8,286047002.2,N
1695523675.7,286047002.1,N
1695523695.5,286047002.2,Y
1695523715.3,286047000.8,P
1695523735.2,286047000.6,N
1695523755.0,286047000.8,N
1695523755.9,286047000.8,N
1695523775.8,286046998.4,Y
1695523795.6,286046999.6,P
1695523815.4,286046997.7,P
1695523835.7,286046997.2,N
1695523855.5,286046996.8,N
1695523875.4,286046999.1,N
1695523895.2,286046996.6,N
1695523915.0,286046996.9,N
1695523916.0,286046996.9,N
1695523935.8,286046999.6,N
1695523955.6,286046999.4,N
1695523975.5,286046999.4,N
1695523995.3,286046999.4,N
1695524015.2,286046998.8,N
1695524035.9,286046998.7,N
1695524055.7,286046998.8,N
1695524075.6,286047000.8,N
1695524095.4,286047001.0,N
1695524115.2,286047001.1,N
1695524135.1,286047001.2,N
1695524136.0,286047001.2,N
1695524155.8,286046998.1,N
1695524175.7,286047001.2,N
1695524195.5,286047000.7,N
1695524215.3,286047000.9,N
1695524235.2,286047000.8,N
1695524255.0,286047000.6,N
1695524255.9,286047000.6,N
1695524275.7,286047000.3,N
1695524295.6,286047000.9,N
1695524315.4,286047000.7,N
1695524335.3,286047001.2,N
1695524355.1,286047000.5,N
1695524356.0,286047000.5,N
1695524405.9,286047000.8,E
